[[{"header":{"parameterUnit":"m.s-1","parameterCategory":1,"la1":30.2991,"la2":30.254,"lo1":-89.0895,"lo2":-89.0444,"dy":0.0017,"dx":0.0017,"nx":28,"ny":28,"refTime":"2025-07-25T21:00:00:Z","depth":0,"parameterNumber":2,"parameterNumberName":"U-component_of_WINDS"},"data":[0,0,0,0,0,0,0,0,0,0,0,0,0,0,0,0,0,0,0,0,0,0,0,0,0,0,0,0,0,0,0,0,0,0,0,0,0,0,0,0,0,0,0,0,0,0,0,0,0,0,0,0,0,0,0,0,0,0,-0.2634,-0.2633,0,-0.2609,-0.2608,-0.2608,-0.2603,-0.2603,-0.2603,-0.2603,-0.2579,-0.2578,-0.2577,0,0,0,0,0,0,0,0,0,0,0,0,0,-0.2679,-0.2679,-0.2634,-0.2633,-0.2633,-0.2609,-0.2608,-0.2608,-0.2603,-0.2603,-0.2603,-0.2604,-0.2579,-0.2578,-0.2577,0,0,0,0,0,0,0,0,0,0,0,0,0,-0.2657,-0.2678,-0.2634,-0.2628,-0.2627,-0.2609,-0.2608,-0.2608,-0.2603,-0.2603,-0.2603,-0.2604,-0.2579,-0.2578,-0.2577,-0.2564,0,0,-0.2573,-0.2573,0,0,0,0,0,0,0,0,-0.2659,-0.2656,-0.2629,-0.2628,-0.2627,-0.2609,-0.2615,-0.2593,-0.2603,-0.2612,-0.2603,-0.2604,-0.2589,-0.2587,-0.2581,-0.2562,-0.2561,-0.2573,-0.2572,-0.2572,-0.2571,0,0,0,0,0,0,0,-0.266,-0.2657,-0.2624,-0.2628,-0.2627,-0.2627,-0.2624,-0.2611,-0.2599,-0.2611,-0.2611,-0.2608,-0.2588,-0.2583,-0.2581,-0.2561,-0.2573,-0.2572,-0.2571,-0.2571,-0.2531,-0.2531,0,0,0,0,0,0,-0.2663,-0.2658,-0.2625,-0.2623,-0.2644,-0.2626,-0.2623,-0.2615,-0.2599,-0.2597,-0.2608,-0.2608,-0.2585,-0.2582,-0.258,-0.2564,-0.2572,-0.2571,-0.257,-0.2532,-0.2531,-0.2531,0,0,0,0,0,0,-0.2664,-0.266,-0.2626,-0.264,-0.2636,-0.2625,-0.2616,-0.2614,-0.2608,-0.2596,-0.2594,-0.2604,-0.2585,-0.2582,-0.2568,-0.2563,-0.257,-0.2569,-0.2532,-0.2532,-0.2531,-0.2532,0,0,0,0,0,0,-0.2665,-0.266,-0.2654,-0.264,-0.2635,-0.2613,-0.2615,-0.2613,-0.2606,-0.2606,-0.2592,-0.2591,-0.2585,-0.257,-0.2567,-0.2562,-0.2568,-0.2532,-0.2532,-0.2531,-0.2532,-0.2532,-0.2531,0,0,0,0,0,-0.2667,-0.2655,-0.2654,-0.265,-0.2628,-0.2613,-0.261,-0.2604,-0.2606,-0.26,-0.2593,-0.2591,-0.2564,-0.2568,-0.2565,-0.2559,-0.2533,-0.2532,-0.2531,-0.2533,-0.2532,-0.2531,0,0,0,0,0,0,-0.2669,-0.2653,-0.2652,-0.2635,-0.2626,-0.2612,-0.2605,-0.2603,-0.2592,-0.2593,-0.2585,-0.2582,-0.2569,-0.2563,-0.2568,-0.2546,-0.2549,-0.2547,-0.2551,-0.255,-0.2549,-0.2551,-0.2567,0,0,0,0,0,-0.2668,-0.2657,-0.2644,-0.2631,-0.2626,-0.2616,-0.261,-0.2606,-0.2595,-0.2591,-0.2583,-0.2573,-0.2563,-0.2556,-0.2546,-0.2532,-0.2529,-0.2526,-0.2525,-0.2525,-0.2524,-0.2517,-0.2516,-0.2529,-0.2529,-0.2529,0,0,-0.2665,-0.2655,-0.2648,-0.2631,-0.2623,-0.2612,-0.2613,-0.2601,-0.2594,-0.2589,-0.2576,-0.257,-0.2559,-0.2545,-0.2539,-0.2539,-0.252,-0.2524,-0.2524,-0.2523,-0.2516,-0.2515,-0.2514,-0.2528,-0.2528,-0.2529,0,0,-0.2654,-0.2645,-0.2634,-0.2626,-0.2614,-0.2608,-0.2605,-0.2592,-0.2588,-0.2574,-0.2571,-0.2563,-0.2544,-0.2537,-0.2531,-0.2519,-0.2517,-0.2516,-0.2513,-0.2506,-0.2505,-0.2504,-0.2501,-0.25,-0.2515,-0.2515,-0.2515,0,-0.2652,-0.2636,-0.2629,-0.2618,-0.2611,-0.2606,-0.2596,-0.2588,-0.2574,-0.2569,-0.257,-0.2548,-0.254,-0.2526,-0.2523,-0.2518,-0.2515,-0.2517,-0.2506,-0.2505,-0.2504,-0.2501,-0.2499,-0.2515,-0.2515,-0.2515,-0.2515,0,-0.2635,-0.2623,-0.2616,-0.2602,-0.2594,-0.2583,-0.2575,-0.2568,-0.2565,-0.2559,-0.2546,-0.2537,-0.2525,-0.2521,-0.2518,-0.2506,-0.2507,-0.2507,-0.2509,-0.2503,-0.25,-0.2498,-0.2515,-0.2515,-0.2515,-0.2515,0,0,-0.2624,-0.2607,-0.2605,-0.2599,-0.2585,-0.2577,-0.2567,-0.2555,-0.255,-0.254,-0.2532,-0.2517,-0.2517,-0.251,-0.2506,-0.2501,-0.2493,-0.2501,-0.2501,-0.2501,-0.2481,-0.2481,-0.248,-0.2492,-0.2492,-0.2491,-0.2482,0,-0.2613,-0.2593,-0.2587,-0.2572,-0.2562,-0.2558,-0.2549,-0.2541,-0.2535,-0.2527,-0.2521,-0.2511,-0.2511,-0.2507,-0.2502,-0.2495,-0.2489,-0.2496,-0.2485,-0.2484,-0.2488,-0.2478,-0.2478,-0.247,-0.2481,-0.248,-0.248,0,-0.2596,-0.2587,-0.257,-0.2559,-0.2555,-0.2547,-0.2536,-0.2528,-0.2519,-0.2515,-0.2508,-0.2505,-0.2495,-0.2497,-0.2484,-0.2489,-0.2484,-0.248,-0.248,-0.2479,-0.2482,-0.2477,-0.2467,-0.2466,-0.2478,-0.2478,-0.2478,0,-0.2592,-0.2574,-0.2562,-0.2557,-0.2544,-0.2539,-0.2533,-0.2524,-0.2518,-0.2509,-0.2505,-0.2495,-0.249,-0.2483,-0.2477,-0.248,-0.2465,-0.2467,-0.2462,-0.2463,-0.2459,-0.246,-0.2449,-0.2456,-0.2456,-0.2456,-0.2456,0,-0.258,-0.257,-0.256,-0.2553,-0.2542,-0.2536,-0.2526,-0.252,-0.2512,-0.2504,-0.25,-0.2493,-0.2486,-0.2478,-0.2474,-0.2464,-0.2462,-0.2459,-0.2458,-0.246,-0.246,-0.2457,-0.2457,-0.2455,-0.2455,-0.2456,-0.2456,0,-0.2573,-0.2566,-0.2553,-0.2542,-0.2539,-0.2531,-0.2522,-0.2515,-0.251,-0.25,-0.2498,-0.2489,-0.248,-0.2474,-0.2462,-0.2459,-0.2449,-0.2447,-0.2452,-0.2451,-0.2447,-0.2448,-0.2434,-0.2432,-0.244,-0.244,-0.244,0,-0.2566,-0.2558,-0.2546,-0.2541,-0.2535,-0.2526,-0.252,-0.2514,-0.2508,-0.2497,-0.2492,-0.2482,-0.2474,-0.246,-0.2453,-0.2444,-0.2443,-0.2439,-0.2442,-0.2444,-0.2444,-0.2445,-0.2444,-0.2439,-0.2439,-0.2439,-0.2439,0,-0.2555,-0.2552,-0.2543,-0.2533,-0.2526,-0.2518,-0.251,-0.2506,-0.2498,-0.2492,-0.2482,-0.2476,-0.2464,-0.2455,-0.2446,-0.244,-0.2439,-0.2438,-0.2436,-0.2438,-0.2441,-0.244,-0.2451,-0.2438,-0.2438,-0.2438,-0.2438,-0.2438,-0.2548,-0.2541,-0.2532,-0.2523,-0.2516,-0.2509,-0.2503,-0.2497,-0.2488,-0.2478,-0.2475,-0.2465,-0.2457,-0.2445,-0.244,-0.2432,-0.2433,-0.2431,-0.243,-0.243,-0.243,-0.2442,-0.2431,-0.2431,-0.2431,-0.2431,-0.2431,0,-0.2537,-0.2531,-0.2523,-0.2512,-0.2505,-0.2503,-0.2495,-0.2489,-0.248,-0.2473,-0.2465,-0.2455,-0.2446,-0.2439,-0.243,-0.2426,-0.2425,-0.2424,-0.2424,-0.2424,-0.243,-0.2432,-0.2425,-0.2425,-0.2425,-0.2425,-0.2425,-0.2425,-0.2531,-0.252,-0.2516,-0.2502,-0.2497,-0.2487,-0.2482,-0.2476,-0.247,-0.2459,-0.2452,-0.2447,-0.244,-0.2431,-0.2423,-0.2422,-0.2419,-0.2418,-0.2416,-0.2422,-0.2423,-0.2424,-0.2426,-0.2417,-0.2417,-0.2411,-0.2411,-0.241]},{"header":{"parameterUnit":"m.s-1","parameterCategory":1,"la1":30.2991,"la2":30.254,"lo1":-89.0895,"lo2":-89.0444,"dy":0.0017,"dx":0.0017,"nx":28,"ny":28,"refTime":"2025-07-25T21:00:00:Z","depth":0,"parameterNumber":3,"parameterNumberName":"V-component_of_WINDS"},"data":[0,0,0,0,0,0,0,0,0,0,0,0,0,0,0,0,0,0,0,0,0,0,0,0,0,0,0,0,0,0,0,0,0,0,0,0,0,0,0,0,0,0,0,0,0,0,0,0,0,0,0,0,0,0,0,0,0,0,1.502,1.502,0,1.5008,1.5008,1.5008,1.4945,1.4944,1.4942,1.4941,1.4928,1.4929,1.493,0,0,0,0,0,0,0,0,0,0,0,0,0,1.4987,1.4988,1.502,1.502,1.5019,1.5008,1.5008,1.5008,1.4945,1.4944,1.4942,1.494,1.4928,1.4929,1.4931,0,0,0,0,0,0,0,0,0,0,0,0,0,1.4991,1.4988,1.502,1.4987,1.4984,1.5008,1.5008,1.5008,1.4946,1.4943,1.4941,1.4939,1.4928,1.4929,1.4931,1.4985,0,0,1.4936,1.4936,0,0,0,0,0,0,0,0,1.4991,1.4992,1.4992,1.4989,1.4986,1.4976,1.4992,1.5,1.4946,1.496,1.4941,1.4938,1.4946,1.4946,1.4949,1.4985,1.4984,1.4936,1.4937,1.4937,1.4938,0,0,0,0,0,0,0,1.499,1.4992,1.5015,1.4992,1.4988,1.4972,1.497,1.4993,1.4966,1.4959,1.4954,1.4954,1.4944,1.4947,1.4948,1.4984,1.4936,1.4937,1.4938,1.4939,1.5061,1.5064,0,0,0,0,0,0,1.4995,1.4992,1.5015,1.5015,1.4983,1.4975,1.4973,1.4981,1.4965,1.4961,1.4956,1.4951,1.4946,1.4946,1.4947,1.5008,1.4937,1.4939,1.494,1.5059,1.5062,1.5064,0,0,0,0,0,0,1.4994,1.4998,1.5016,1.5002,1.5003,1.4978,1.4988,1.4982,1.4985,1.4963,1.4958,1.4964,1.4944,1.4945,1.4976,1.5007,1.494,1.4941,1.5056,1.506,1.5063,1.5131,0,0,0,0,0,0,1.4994,1.4998,1.5019,1.5003,1.5004,1.5045,1.499,1.4984,1.4988,1.4982,1.4969,1.4965,1.4942,1.4974,1.4977,1.5008,1.4942,1.5053,1.5058,1.5062,1.5126,1.5137,1.5146,0,0,0,0,0,1.4993,1.5039,1.502,1.5023,1.503,1.5047,1.5048,1.502,1.4991,1.5011,1.4997,1.4966,1.5003,1.4977,1.4981,1.5012,1.5051,1.5057,1.5062,1.5122,1.5135,1.5145,0,0,0,0,0,0,1.5059,1.5036,1.5015,1.5058,1.5055,1.5037,1.5062,1.5035,1.5041,1.5034,1.5,1.4998,1.5033,1.5026,1.4998,1.5063,1.5022,1.5028,1.5066,1.5078,1.5088,1.5088,1.4944,0,0,0,0,0,1.5079,1.5095,1.5074,1.5114,1.5113,1.5088,1.5094,1.5073,1.5069,1.5067,1.5055,1.5052,1.5062,1.507,1.5079,1.5125,1.512,1.5148,1.5158,1.5166,1.5171,1.5193,1.5205,1.5081,1.5081,1.5081,0,0,1.512,1.5109,1.5121,1.5127,1.5122,1.5138,1.5087,1.5108,1.5119,1.507,1.5098,1.5089,1.5083,1.5121,1.5137,1.5116,1.5204,1.5173,1.5179,1.518,1.52,1.5211,1.5222,1.5085,1.5084,1.5084,0,0,1.5202,1.5196,1.5227,1.5223,1.5216,1.5199,1.5207,1.5192,1.5184,1.5211,1.5174,1.5187,1.5207,1.5203,1.5204,1.5283,1.5254,1.5287,1.5338,1.5359,1.5369,1.5377,1.5404,1.5414,1.5293,1.5293,1.5293,0,1.5253,1.5277,1.5247,1.5269,1.5271,1.5227,1.5258,1.5255,1.5252,1.5254,1.5231,1.5253,1.5246,1.5282,1.5301,1.5304,1.531,1.5288,1.537,1.5378,1.5385,1.541,1.542,1.5297,1.5296,1.5296,1.5296,0,1.5339,1.5356,1.5382,1.5379,1.5385,1.5411,1.5384,1.5393,1.5371,1.5356,1.5383,1.5373,1.5378,1.5385,1.5365,1.5418,1.5404,1.5376,1.5334,1.5402,1.5424,1.5433,1.5302,1.5301,1.53,1.5299,0,0,1.5463,1.5442,1.5452,1.5449,1.5437,1.5449,1.5473,1.5478,1.5485,1.5484,1.5502,1.5519,1.5492,1.5493,1.5471,1.5491,1.5551,1.546,1.5459,1.5475,1.5607,1.5627,1.5638,1.5532,1.5534,1.5536,1.5606,0,1.554,1.5579,1.5552,1.5595,1.5609,1.5567,1.5587,1.5582,1.5568,1.5578,1.5563,1.5574,1.5539,1.5539,1.5556,1.554,1.5577,1.5535,1.5547,1.5548,1.5549,1.565,1.5672,1.574,1.5615,1.5617,1.5618,0,1.5636,1.5637,1.5682,1.5665,1.567,1.5689,1.569,1.57,1.5692,1.5681,1.5681,1.5654,1.5675,1.5634,1.5662,1.5634,1.5637,1.563,1.5632,1.5631,1.5586,1.5651,1.5761,1.5771,1.5632,1.5631,1.563,0,1.5719,1.5733,1.576,1.576,1.5742,1.5755,1.5749,1.5739,1.5743,1.5743,1.5745,1.5749,1.575,1.5753,1.5727,1.57,1.5757,1.5715,1.5747,1.5748,1.576,1.5759,1.5871,1.5765,1.5765,1.5765,1.5765,0,1.5807,1.5835,1.5797,1.5814,1.5844,1.5812,1.5843,1.5832,1.5823,1.5836,1.5801,1.5814,1.578,1.5789,1.5769,1.5794,1.5795,1.5785,1.5779,1.5788,1.5789,1.5789,1.5783,1.5768,1.5767,1.5767,1.5766,0,1.5905,1.5881,1.5908,1.5888,1.5884,1.5907,1.5889,1.5904,1.5887,1.5904,1.5907,1.5881,1.589,1.5864,1.587,1.5856,1.5891,1.5879,1.5894,1.5889,1.5922,1.5918,1.6036,1.6049,1.5937,1.5938,1.5939,0,1.5962,1.5982,1.5964,1.597,1.5965,1.5976,1.5979,1.5948,1.5953,1.5945,1.596,1.5966,1.5969,1.5985,1.5966,1.597,1.5956,1.5997,1.5956,1.5963,1.5954,1.5953,1.5954,1.6005,1.6006,1.6007,1.6008,0,1.6065,1.6051,1.6057,1.6058,1.6063,1.6063,1.606,1.6067,1.6034,1.6041,1.6049,1.6051,1.6056,1.6062,1.6061,1.6053,1.6025,1.6021,1.6028,1.6036,1.6043,1.6038,1.5915,1.6018,1.6017,1.6017,1.6016,1.6016,1.6142,1.6158,1.6147,1.6154,1.6149,1.6146,1.6158,1.6143,1.6149,1.615,1.6131,1.6143,1.6134,1.6129,1.6124,1.6133,1.6114,1.6125,1.6127,1.613,1.6135,1.6043,1.6133,1.6132,1.6132,1.6132,1.6132,0,1.6242,1.6232,1.6239,1.6236,1.6241,1.6214,1.6209,1.6215,1.6226,1.6219,1.6222,1.6231,1.6236,1.6218,1.622,1.623,1.6217,1.6231,1.6229,1.6228,1.6153,1.6145,1.6242,1.6242,1.6242,1.6242,1.6242,1.6242,1.6294,1.6318,1.6303,1.6323,1.6313,1.6324,1.6323,1.6321,1.6315,1.6326,1.633,1.6318,1.6306,1.6307,1.631,1.6304,1.6306,1.6324,1.6314,1.6244,1.6233,1.6223,1.6216,1.6326,1.6326,1.6388,1.6389,1.6389]}]]